Regional Weather Roundup
Issued by NWS

Home | Current Version | Previous Version | Graphics & Text | Print | Product List | Glossary On
Versions: 1 2 3 4 5 6 7 8 9 10 11 12 13 14 15 16 17 18 19 20 21 22 23 24 25 26 27 28 29 30 31 32 33 34 35 36 37 38 39 40 41 42 43 44 45 46 47 48 49 50
282
ASUS43 KIND 300059
RWRIN

WEATHER ROUNDUP FOR INDIANA
NATIONAL WEATHER SERVICE INDIANAPOLIS IN
900 PM EDT SUN MAY 29 2016

NOTE: "FAIR" INDICATES FEW OR NO CLOUDS BELOW 12,000 FEET WITH NO
SIGNIFICANT WEATHER AND/OR OBSTRUCTIONS TO VISIBILITY.

* - STATION DOES NOT REPORT WEATHER SUCH AS PRECIPITATION OR FOG.

+ - STATION NOT QUALITY CONTROLLED BY THE NATIONAL WEATHER SERVICE.
    USE DATA WITH CAUTION...ESPECIALLY DEWPOINT AND RELATIVE
    HUMIDITY OBSERVATIONS.

INZ001>003-010>013-019-020-300200-
NORTHWEST INDIANA

CITY           SKY/WX    TMP DP  RH WIND       PRES   REMARKS
GARY /AIRPORT/ PTCLDY    79  63  57 W14       29.99S
RENSSELAER +   CLEAR     79  50  36 W5        30.00R

$$

LMZ046-743>745-300200-
SOUTHERN LAKE MICHIGAN

STATION/POSITION TIME  TEMP    WIND        PRES    WAVE
                       AIR SEA DIR/SP/G            HT
                 (UTC) (F)     (DEG/KT/KT) (MB)    (FT)
BURNS HARBOR     0000   69     270/  6/  8 1015.9S
MICHIGAN CITY    0000   70     220/  7/  7   N/A
5NW MICH CITY    0000   65 59  240/  4/  6   N/A     1

$$

INZ004-005-014>016-021>024-300200-
NORTH CENTRAL INDIANA

CITY           SKY/WX    TMP DP  RH WIND       PRES   REMARKS
GOSHEN         CLEAR     73  56  54 NW8       29.99R
SOUTH BEND     CLEAR     72  57  59 W6        30.00R

$$

INZ006>009-017-018-025>027-300200-
NORTHEAST INDIANA

CITY           SKY/WX    TMP DP  RH WIND       PRES   REMARKS
ANGOLA *+        N/A     77  70  78 NW10      29.99R
FORT WAYNE     PTCLDY    80  51  36 W9        29.98R

$$

INZ028-029-035-036-043>045-051>053-300200-
WEST CENTRAL INDIANA

CITY           SKY/WX    TMP DP  RH WIND       PRES   REMARKS
CRAWFORDSVL +  CLOUDY    75  53  45 W6        30.01R
GREENCASTLE +  PTCLDY    79  61  53 W3        30.01S
LAFAYETTE      CLEAR     75  54  47 W7        29.99S
TERRE HAUTE    PTCLDY    80  60  50 W9        30.01S

$$

INZ030>032-037>040-046>048-054>057-064-065-300200-
CENTRAL INDIANA

CITY           SKY/WX    TMP DP  RH WIND       PRES   REMARKS
COLUMBUS       PTCLDY    75  63  64 W5        30.00F
INDIANAPOLIS   PTCLDY    77  58  51 S6        29.99S
-EAGLE CREEK   MOCLDY    80  55  42 W9        29.99S
KOKOMO *+      CLEAR     79  52  38 W13       29.99R
SHELBYVILLE    CLEAR     78  59  51 SW10      29.99F

$$

INZ033-034-041-042-049-050-058-059-300200-
EAST CENTRAL INDIANA

CITY           SKY/WX    TMP DP  RH WIND       PRES   REMARKS
MUNCIE         CLOUDY    81  53  37 W7        29.98F

$$

INZ060-061-067>069-081>083-085>088-300200-
SOUTHWEST INDIANA

CITY           SKY/WX    TMP DP  RH WIND       PRES   REMARKS
EVANSVILLE     CLEAR     77  66  68 W5        30.02F
HUNTINGBURG *+ CLEAR     75  63  64 S3        30.02F

$$

INZ062-063-066-070>080-084-089>092-300200-
SOUTH CENTRAL AND SOUTHEAST INDIANA

CITY           SKY/WX    TMP DP  RH WIND       PRES   REMARKS
BLOOMINGTON    CLEAR     72  67  84 W3        30.02R
MADISON *+     CLOUDY    77  61  57 CALM      30.03R
SEYMOUR +      CLEAR     77  66  69 NW7       30.00S

$$





USA.gov is the U.S. government's official web portal to all federal, state and local government web resources and services.